Location: Unspecified
(0.0000°N, 0.0000°E)
Time: 19:34:38
(UTC+02:00)

Cosmos 1833 Rocket - Visible Passes

Search period start: 31 July 2014 00:00
Search period end: 10 August 2014 00:00
Orbit: 835 x 838 km, 71.0° (Epoch: 31 July)

Date Brightness Start Highest point End Pass type
(mag) Time Alt. Az. Time Alt. Az. Time Alt. Az.
31 Jul 4.2 06:25:28 10° N 06:30:34 36° ENE 06:35:40 10° SE visible
01 Aug 4.4 06:09:03 10° NNE 06:13:59 33° ENE 06:18:57 10° SE visible
02 Aug 4.5 05:52:38 10° NNE 05:57:25 29° ENE 06:02:12 10° SE visible
02 Aug 3.9 07:37:15 10° WNW 07:41:03 19° WSW 07:44:53 10° SSW visible
03 Aug 4.6 05:36:15 10° NNE 05:40:50 26° ENE 05:45:26 10° SE visible
03 Aug 3.8 07:20:22 10° WNW 07:24:28 21° WSW 07:28:36 10° SSW visible
04 Aug 4.7 05:19:54 10° NNE 05:24:15 23° ENE 05:28:37 10° SE visible
04 Aug 3.6 07:03:32 10° NW 07:07:53 23° WSW 07:12:17 10° SSW visible
05 Aug 5.3 05:03:34 10° NNE 05:04:41 14° NE 05:04:41 14° NE visible
05 Aug 4.5 06:55:15 13° SSW 06:55:15 13° SSW 06:55:55 10° SSW visible
